Location: Balagbag Mahabang Kahoy
(14.1562°N, 120.9200°E)
Time: 17:15:46
(UTC+00:00)

BREEZE-M DEB (TANK) - Pass Details

Date: 16 January 2026
Orbit: 355 x 13407 km, 46.0° (Epoch: 16 February)

Event Time Altitude Azimuth Distance (km) Brightness Sun altitude
Exits shadow 21:02:50 32° 306° (NW) 1,497 4.0 -19.5°
Maximum altitude 21:05:28 78° 225° (SW) 1,283 4.0 -18.9°
Drops below altitude 10° 21:22:39 10° 141° (SE) 7,492 8.9 -15.0°
Sets 21:33:29 0° 140° (SE) 10,849 9.9 -12.5°
